Погода в Наумовом

Россия / Псковская область     56°16′26″N   31°19′25″E
темп.,
°C
ветер,
м/с
пор.,
м/с
влажн.,
%
обл.,
%
осадки,
мм/ч
давл.,
гПа
погр.,
м
18 мая, вт
вт1800:00+15вюв1297100 1.7 100435
03:00+16вюв4119698 2.6 1003361
06:00+16вюв41197100 0.3 1001329
09:00+18юв4109399 1.3 1002543
12:00+23ююв6116240 0.2 10031704
15:00+24ю5853100 0.3 10031675
18:00+19ююв1280100 0.6 1002178
21:00+16зюз1195100 1.6 100211
19 мая, ср
ср1900:00+15ссв269990 2.7 1000149
03:00+15ююв6129590 3.1 1000764
06:00+14юв4109698 0.0 1001553
09:00+17юв598496 0.1 1002813
12:00+18ю596999 0.2 10021194
15:00+20ю586651 1.1 10031467
18:00+17ююв3781100 0.9 1004613
21:00+14ююв2494100 1.7 100573
20 мая, чт
чт2000:00+14ююв129499 0.1 100433
03:00+13юз0197100 0.5 100413
06:00+12сз4799100 3.3 1003384
09:00+10ссз51098100 6.0 1003394
12:00+10сз51198100 1.4 1002534
15:00+10сз51198100 3.3 1001624
18:00+9сз51298100 11.1 1001864
21:00+9зсз71497100 21.3 1003890
21 мая, пт
пт2100:00+8зсз61395100 2.1 1005908
03:00+9з51295100 2.2 1008745
06:00+7з4129377 0.0 1010522
09:00+11з47710 0.0 1012661
12:00+15зюз46495 0.0 10131421
15:00+16зюз57415 0.0 10132136
18:00+16юз475021 0.0 10132229
21:00+11з127645 0.1 101540
22 мая, сб
сб2200:00+7з22897 0.0 101632
03:00+5зюз11870 0.0 101710
06:00+6ююв238572 0.0 101772
09:00+13ю2458100 0.0 1017529
12:00+17ю35454 0.0 10151612
15:00+18ююз4541100 0.0 10151955
18:00+17ю365389 0.0 10141631
21:00+11ююв378214 0.0 1014133